EN

Hourly Weather Troyany

Today, 17 April, Saturday

Time Temperature Precipitation Wind Pressure Humidity
00:00 +3°C° 0.1 mm 5 mps 755 mmHg 86%
01:00 +3°C° 0.1 mm 5 mps 756 mmHg 85%
02:00 +3°C° 0 mm 5 mps 756 mmHg 84%
03:00 +4°C° 0 mm 4 mps 756 mmHg 86%
04:00 +3°C° 0 mm 4 mps 756 mmHg 88%
05:00 +2°C° 0 mm 3 mps 757 mmHg 90%
06:00 +4°C° 0 mm 4 mps 757 mmHg 82%
07:00 +5°C° 0 mm 4 mps 757 mmHg 74%
08:00 +7°C° 0 mm 4 mps 757 mmHg 66%
09:00 +8°C° 0 mm 4 mps 757 mmHg 61%
10:00 +10°C° 0 mm 4 mps 757 mmHg 56%
11:00 +12°C° 0 mm 4 mps 758 mmHg 51%
12:00 +12°C° 0 mm 4 mps 757 mmHg 50%
13:00 +12°C° 0 mm 3 mps 757 mmHg 48%
14:00 +12°C° 0 mm 3 mps 757 mmHg 46%
15:00 +12°C° 0 mm 3 mps 757 mmHg 46%
16:00 +13°C° 0 mm 2 mps 757 mmHg 46%
17:00 +13°C° 0 mm 2 mps 757 mmHg 46%
18:00 +12°C° 0 mm 2 mps 757 mmHg 50%
19:00 +9°C° 0 mm 2 mps 757 mmHg 54%
20:00 +8°C° 0 mm 2 mps 757 mmHg 58%
21:00 +7°C° 0 mm 2 mps 757 mmHg 60%
22:00 +8°C° 0 mm 1 mps 757 mmHg 61%
23:00 +7°C° 0 mm 1 mps 757 mmHg 63%

Tomorrow, 18 April, Sunday

Time Temperature Precipitation Wind Pressure Humidity
00:00 +7°C° 0 mm 1 mps 757 mmHg 63%
01:00 +7°C° 0 mm 1 mps 757 mmHg 63%
02:00 +7°C° 0 mm 1 mps 757 mmHg 63%
03:00 +6°C° 0 mm 1 mps 756 mmHg 64%
04:00 +6°C° 0 mm 1 mps 756 mmHg 64%
05:00 +6°C° 0 mm 1 mps 756 mmHg 65%
06:00 +8°C° 0 mm 1 mps 756 mmHg 61%
07:00 +9°C° 0 mm 1 mps 756 mmHg 56%
08:00 +11°C° 0 mm 1 mps 756 mmHg 52%
09:00 +12°C° 0 mm 1 mps 756 mmHg 49%
10:00 +13°C° 0 mm 1 mps 756 mmHg 46%
11:00 +15°C° 0 mm 1 mps 756 mmHg 42%
12:00 +15°C° 0 mm 2 mps 755 mmHg 41%
13:00 +16°C° 0 mm 2 mps 755 mmHg 39%
14:00 +16°C° 0 mm 2 mps 755 mmHg 38%
15:00 +16°C° 0 mm 2 mps 755 mmHg 39%
16:00 +16°C° 0 mm 2 mps 755 mmHg 41%
17:00 +16°C° 0 mm 2 mps 755 mmHg 42%
18:00 +15°C° 0 mm 2 mps 755 mmHg 45%
19:00 +14°C° 0 mm 1 mps 755 mmHg 48%
20:00 +13°C° 0 mm 1 mps 755 mmHg 51%
21:00 +12°C° 0 mm 1 mps 755 mmHg 53%
22:00 +12°C° 0 mm 1 mps 755 mmHg 55%
23:00 +12°C° 0 mm 1 mps 755 mmHg 57%

Day after tomorrow, 19 April, Monday

Time Temperature Precipitation Wind Pressure Humidity
00:00 +11°C° 0 mm 1 mps 755 mmHg 59%
01:00 +11°C° 0 mm 1 mps 755 mmHg 61%
02:00 +10°C° 0 mm 0 mps 755 mmHg 63%
03:00 +9°C° 0 mm 0 mps 755 mmHg 64%
04:00 +9°C° 0 mm 0 mps 755 mmHg 65%
05:00 +9°C° 0 mm 0 mps 754 mmHg 65%
06:00 +11°C° 0 mm 1 mps 754 mmHg 63%
07:00 +12°C° 0 mm 1 mps 754 mmHg 60%
08:00 +13°C° 0 mm 2 mps 755 mmHg 57%
09:00 +14°C° 0 mm 2 mps 754 mmHg 54%
10:00 +15°C° 0 mm 2 mps 754 mmHg 50%
11:00 +16°C° 0 mm 2 mps 754 mmHg 46%
12:00 +16°C° 0 mm 2 mps 754 mmHg 46%
13:00 +16°C° 0 mm 2 mps 753 mmHg 47%
14:00 +16°C° 0 mm 2 mps 753 mmHg 47%
15:00 +16°C° 0 mm 2 mps 753 mmHg 50%
16:00 +16°C° 0 mm 3 mps 752 mmHg 53%
17:00 +14°C° 0 mm 3 mps 752 mmHg 56%
18:00 +14°C° 0 mm 4 mps 752 mmHg 59%
19:00 +13°C° 0 mm 4 mps 752 mmHg 62%
20:00 +12°C° 0 mm 4 mps 752 mmHg 65%
21:00 +12°C° 0 mm 4 mps 751 mmHg 65%
22:00 +12°C° 0 mm 5 mps 751 mmHg 65%
23:00 +12°C° 0 mm 5 mps 750 mmHg 65%

20 April, Tuesday

Time Temperature Precipitation Wind Pressure Humidity
00:00 +10°C° 0 mm 5 mps 749 mmHg 65%
01:00 +10°C° 0 mm 5 mps 749 mmHg 66%
02:00 +10°C° 0 mm 5 mps 748 mmHg 66%
03:00 +9°C° 0.8 mm 5 mps 747 mmHg 72%
04:00 +8°C° 0.8 mm 6 mps 747 mmHg 79%
05:00 +8°C° 0.8 mm 6 mps 746 mmHg 85%
06:00 +8°C° 2.1 mm 7 mps 745 mmHg 87%
07:00 +6°C° 2.1 mm 8 mps 744 mmHg 89%
08:00 +6°C° 2.1 mm 9 mps 743 mmHg 91%
09:00 +6°C° 3.5 mm 9 mps 742 mmHg 92%
10:00 +7°C° 3.5 mm 8 mps 741 mmHg 93%
11:00 +7°C° 3.5 mm 8 mps 741 mmHg 94%
12:00 +8°C° 2.5 mm 7 mps 740 mmHg 94%
13:00 +8°C° 2.5 mm 6 mps 740 mmHg 94%
14:00 +8°C° 2.5 mm 6 mps 739 mmHg 94%
15:00 +8°C° 0.8 mm 6 mps 739 mmHg 93%
16:00 +8°C° 0.8 mm 7 mps 740 mmHg 92%
17:00 +7°C° 0.8 mm 8 mps 740 mmHg 91%
18:00 +7°C° 0.3 mm 8 mps 741 mmHg 90%
19:00 +7°C° 0.3 mm 8 mps 742 mmHg 89%
20:00 +7°C° 0.3 mm 8 mps 744 mmHg 88%
21:00 +6°C° 0 mm 8 mps 745 mmHg 86%
22:00 +6°C° 0 mm 8 mps 746 mmHg 84%
23:00 +6°C° 0 mm 7 mps 747 mmHg 83%

21 April, Wednesday

Time Temperature Precipitation Wind Pressure Humidity
00:00 +6°C° 0 mm 7 mps 748 mmHg 82%
01:00 +7°C° 0 mm 6 mps 748 mmHg 82%
02:00 +5°C° 0 mm 6 mps 749 mmHg 81%
03:00 +6°C° 0 mm 5 mps 750 mmHg 83%
04:00 +5°C° 0 mm 5 mps 750 mmHg 85%
05:00 +4°C° 0 mm 4 mps 751 mmHg 87%
06:00 +5°C° 0 mm 5 mps 752 mmHg 82%
07:00 +6°C° 0 mm 5 mps 752 mmHg 77%
08:00 +7°C° 0 mm 5 mps 753 mmHg 71%
09:00 +8°C° 0 mm 5 mps 753 mmHg 65%
10:00 +10°C° 0 mm 5 mps 754 mmHg 59%
11:00 +12°C° 0 mm 5 mps 754 mmHg 53%
12:00 +13°C° 0 mm 5 mps 754 mmHg 51%
13:00 +14°C° 0 mm 5 mps 754 mmHg 48%
14:00 +15°C° 0 mm 5 mps 754 mmHg 45%
15:00 +14°C° 0 mm 5 mps 755 mmHg 49%
16:00 +14°C° 0 mm 4 mps 755 mmHg 52%
17:00 +13°C° 0 mm 4 mps 755 mmHg 55%
18:00 +12°C° 0 mm 3 mps 755 mmHg 61%
19:00 +11°C° 0 mm 3 mps 756 mmHg 67%
20:00 +10°C° 0 mm 3 mps 756 mmHg 74%
21:00 +9°C° 0 mm 3 mps 757 mmHg 75%
22:00 +9°C° 0 mm 2 mps 757 mmHg 76%
23:00 +8°C° 0 mm 2 mps 757 mmHg 78%

22 April, Thursday

Time Temperature Precipitation Wind Pressure Humidity
00:00 +8°C° 0 mm 2 mps 757 mmHg 79%
01:00 +8°C° 0 mm 2 mps 757 mmHg 80%
02:00 +8°C° 0 mm 2 mps 757 mmHg 81%
03:00 +8°C° 0 mm 2 mps 758 mmHg 84%
04:00 +7°C° 0 mm 2 mps 758 mmHg 88%
05:00 +7°C° 0 mm 2 mps 758 mmHg 91%
06:00 +8°C° 0 mm 3 mps 758 mmHg 85%
07:00 +10°C° 0 mm 3 mps 758 mmHg 80%
08:00 +11°C° 0 mm 4 mps 759 mmHg 74%
09:00 +12°C° 0.1 mm 4 mps 759 mmHg 68%
10:00 +13°C° 0.1 mm 4 mps 759 mmHg 63%
11:00 +15°C° 0.1 mm 4 mps 759 mmHg 57%
12:00 +16°C° 0.1 mm 3 mps 759 mmHg 54%
13:00 +17°C° 0.1 mm 3 mps 759 mmHg 50%
14:00 +17°C° 0.1 mm 3 mps 759 mmHg 47%
15:00 +17°C° 0 mm 2 mps 759 mmHg 50%
16:00 +16°C° 0 mm 2 mps 759 mmHg 53%
17:00 +16°C° 0 mm 2 mps 759 mmHg 56%
18:00 +15°C° 0 mm 2 mps 759 mmHg 60%
19:00 +14°C° 0 mm 2 mps 759 mmHg 65%
20:00 +13°C° 0 mm 2 mps 760 mmHg 69%
21:00 +12°C° 0 mm 2 mps 760 mmHg 72%
22:00 +12°C° 0 mm 2 mps 760 mmHg 75%
23:00 +10°C° 0 mm 2 mps 760 mmHg 79%
Show more

We Need Your Consent

Meteoprog and our Service Providers may store and access personal data such as cookies, device identifiers or other similar technologies on your device and process such data to personalise content and ads, as well as provide social media features and to analyse the traffic.

  • Store and/or access information on your device

    Cookies, device identifiers or other information can be stored or accessed on your device for the purposes indicated above.

  • Personalised ads and content, ad and content measurement, audience insights, and products development

    Ads and content can be personalised based on a profile. More data can be added to better personalise ads and content. Ad and content performance can be measured. Insights about the audience who saw the ads and content can be derived. Such data can be used to develop or improve user’s experience, systems and software.

By clicking ‘I Agree’ you will allow the use of indicated cookies, device identifiers, web beacons or other similar technologies. Your settings can be changed in the browser on your device.

For certain purposes, legitimate interests may be relied on, rather than consent. You can read more about this in our Privacy and Cookie Policy.